GSLV R/B

Last updated on Sun Jun 21 2026 00:02:16 GMT+0000 (Coordinated Universal Time)

1 54149U 22138AN 26171.39262727 .00001845 00000+0 15597-3 0 9991 2 54149 87.3806 131.9079 0023267 132.8603 227.4588 14.97268932199297
UTC large
Height (km)
Speed (km/s)
/
Latitude / Longitude
Inclination (degrees)
Orbital Period (minutes)
Azimuth
Elevation
Range (km)
Doppler Factor

Next 0 passes for location: London (51.5072 / 0.1276)

No passes found over London.
GSLV R/B